Météo par heure à Abaigar

Ce jour, 6 Décembre, Dimanche

Heure Température Précipitation Vent Pression Humidité
00:00 +1°C° 0.2 mm 5 m/s 698 mmHg 88%
01:00 +1°C° 0 mm 4 m/s 698 mmHg 87%
02:00 0°C° 0 mm 4 m/s 698 mmHg 86%
03:00 0°C° 0 mm 4 m/s 698 mmHg 86%
04:00 0°C° 0.5 mm 4 m/s 698 mmHg 85%
05:00 0°C° 0.5 mm 4 m/s 698 mmHg 84%
06:00 -1°C° 0.5 mm 4 m/s 698 mmHg 84%
07:00 0°C° 1.4 mm 5 m/s 698 mmHg 85%
08:00 0°C° 1.4 mm 5 m/s 699 mmHg 87%
09:00 0°C° 1.4 mm 5 m/s 699 mmHg 88%
10:00 0°C° 1.3 mm 5 m/s 699 mmHg 86%
11:00 +1°C° 1.3 mm 6 m/s 699 mmHg 84%
12:00 +1°C° 1.3 mm 6 m/s 699 mmHg 82%
13:00 +2°C° 1.1 mm 6 m/s 699 mmHg 80%
14:00 +2°C° 1.1 mm 7 m/s 699 mmHg 78%
15:00 +3°C° 1.1 mm 7 m/s 699 mmHg 75%
16:00 +2°C° 0.5 mm 6 m/s 699 mmHg 81%
17:00 +1°C° 0.5 mm 4 m/s 699 mmHg 87%
18:00 +2°C° 0.5 mm 3 m/s 699 mmHg 92%
19:00 +2°C° 0.7 mm 3 m/s 699 mmHg 92%
20:00 +2°C° 0.7 mm 2 m/s 700 mmHg 92%
21:00 +2°C° 0.7 mm 2 m/s 700 mmHg 91%
22:00 +3°C° 0.3 mm 1 m/s 699 mmHg 91%
23:00 +3°C° 0.3 mm 1 m/s 699 mmHg 91%

Demain, 7 Décembre, Lundi

Heure Température Précipitation Vent Pression Humidité
00:00 +3°C° 0.3 mm 1 m/s 698 mmHg 92%
01:00 +3°C° 2.1 mm 1 m/s 698 mmHg 93%
02:00 +3°C° 2.1 mm 1 m/s 697 mmHg 95%
03:00 +3°C° 2.1 mm 1 m/s 696 mmHg 97%
04:00 +3°C° 1.7 mm 1 m/s 696 mmHg 97%
05:00 +4°C° 1.7 mm 1 m/s 696 mmHg 96%
06:00 +4°C° 1.7 mm 1 m/s 696 mmHg 96%
07:00 +4°C° 1.9 mm 2 m/s 696 mmHg 93%
08:00 +3°C° 1.9 mm 3 m/s 696 mmHg 91%
09:00 +4°C° 1.9 mm 3 m/s 697 mmHg 88%
10:00 +5°C° 1.1 mm 4 m/s 697 mmHg 86%
11:00 +5°C° 1.1 mm 5 m/s 697 mmHg 83%
12:00 +5°C° 1.1 mm 6 m/s 697 mmHg 81%
13:00 +6°C° 0.7 mm 5 m/s 697 mmHg 82%
14:00 +5°C° 0.7 mm 5 m/s 696 mmHg 83%
15:00 +5°C° 0.7 mm 5 m/s 696 mmHg 84%
16:00 +5°C° 0.6 mm 4 m/s 696 mmHg 85%
17:00 +4°C° 0.6 mm 3 m/s 696 mmHg 87%
18:00 +3°C° 0.6 mm 3 m/s 696 mmHg 89%
19:00 +3°C° 0.1 mm 3 m/s 696 mmHg 87%
20:00 +3°C° 0.1 mm 3 m/s 696 mmHg 86%
21:00 +1°C° 0.1 mm 4 m/s 696 mmHg 84%
22:00 +1°C° 0.1 mm 4 m/s 696 mmHg 84%
23:00 +1°C° 0.1 mm 4 m/s 696 mmHg 84%

Après-demain, 8 Décembre, Mardi

Heure Température Précipitation Vent Pression Humidité
00:00 +1°C° 0.1 mm 4 m/s 696 mmHg 84%
01:00 +1°C° 0.2 mm 4 m/s 696 mmHg 85%
02:00 +1°C° 0.2 mm 5 m/s 696 mmHg 87%
03:00 +1°C° 0.2 mm 5 m/s 696 mmHg 89%
04:00 +1°C° 0.5 mm 5 m/s 696 mmHg 88%
05:00 +1°C° 0.5 mm 5 m/s 697 mmHg 87%
06:00 +1°C° 0.5 mm 5 m/s 697 mmHg 86%
07:00 +1°C° 0.5 mm 5 m/s 698 mmHg 87%
08:00 +1°C° 0.5 mm 5 m/s 699 mmHg 87%
09:00 +2°C° 0.5 mm 5 m/s 700 mmHg 88%
10:00 +2°C° 0.2 mm 5 m/s 701 mmHg 87%
11:00 +2°C° 0.2 mm 5 m/s 701 mmHg 86%
12:00 +2°C° 0.2 mm 5 m/s 702 mmHg 85%
13:00 +3°C° 0.2 mm 5 m/s 702 mmHg 84%
14:00 +3°C° 0.2 mm 5 m/s 702 mmHg 83%
15:00 +4°C° 0.2 mm 4 m/s 703 mmHg 82%
16:00 +3°C° 0.8 mm 4 m/s 703 mmHg 86%
17:00 +3°C° 0.8 mm 4 m/s 703 mmHg 90%
18:00 +1°C° 0.8 mm 4 m/s 704 mmHg 93%
19:00 +1°C° 0.7 mm 5 m/s 704 mmHg 93%
20:00 +1°C° 0.7 mm 5 m/s 705 mmHg 92%
21:00 +1°C° 0.7 mm 5 m/s 705 mmHg 91%
22:00 +1°C° 1.4 mm 4 m/s 705 mmHg 92%
23:00 +1°C° 1.4 mm 4 m/s 706 mmHg 93%

9 Décembre, Mercredi

Heure Température Précipitation Vent Pression Humidité
00:00 +1°C° 1.4 mm 4 m/s 706 mmHg 94%
01:00 +1°C° 0.6 mm 4 m/s 706 mmHg 94%
02:00 +2°C° 0.6 mm 3 m/s 706 mmHg 94%
03:00 +2°C° 0.6 mm 3 m/s 707 mmHg 94%
04:00 +2°C° 0.5 mm 3 m/s 707 mmHg 94%
05:00 +2°C° 0.5 mm 3 m/s 707 mmHg 94%
06:00 +2°C° 0.5 mm 3 m/s 707 mmHg 94%
07:00 +2°C° 0.5 mm 3 m/s 707 mmHg 94%
08:00 +2°C° 0.5 mm 3 m/s 707 mmHg 93%
09:00 +2°C° 0.5 mm 3 m/s 708 mmHg 92%
10:00 +3°C° 0.4 mm 4 m/s 708 mmHg 89%
11:00 +4°C° 0.4 mm 4 m/s 708 mmHg 86%
12:00 +4°C° 0.4 mm 4 m/s 708 mmHg 84%
13:00 +4°C° 0.3 mm 4 m/s 707 mmHg 83%
14:00 +4°C° 0.3 mm 3 m/s 707 mmHg 83%
15:00 +4°C° 0.3 mm 3 m/s 707 mmHg 82%
16:00 +4°C° 0.1 mm 3 m/s 707 mmHg 83%
17:00 +4°C° 0.1 mm 2 m/s 707 mmHg 83%
18:00 +4°C° 0.1 mm 2 m/s 707 mmHg 84%
19:00 +3°C° 0.6 mm 2 m/s 706 mmHg 86%
20:00 +3°C° 0.6 mm 2 m/s 706 mmHg 88%
21:00 +3°C° 0.6 mm 2 m/s 705 mmHg 90%
22:00 +3°C° 1.4 mm 2 m/s 705 mmHg 91%
23:00 +3°C° 1.4 mm 2 m/s 704 mmHg 92%

10 Décembre, Jeudi

Heure Température Précipitation Vent Pression Humidité
00:00 +4°C° 1.4 mm 2 m/s 704 mmHg 93%
01:00 +3°C° 1.4 mm 3 m/s 703 mmHg 93%
02:00 +4°C° 1.4 mm 3 m/s 703 mmHg 93%
03:00 +4°C° 1.4 mm 3 m/s 702 mmHg 93%
04:00 +5°C° 1.5 mm 3 m/s 703 mmHg 93%
05:00 +5°C° 1.5 mm 3 m/s 703 mmHg 94%
06:00 +5°C° 1.5 mm 3 m/s 703 mmHg 95%
07:00 +5°C° 2 mm 3 m/s 703 mmHg 95%
08:00 +5°C° 2 mm 3 m/s 704 mmHg 95%
09:00 +5°C° 2 mm 3 m/s 704 mmHg 94%
10:00 +7°C° 0.1 mm 3 m/s 705 mmHg 90%
11:00 +7°C° 0.1 mm 4 m/s 705 mmHg 87%
12:00 +8°C° 0.1 mm 4 m/s 705 mmHg 83%
13:00 +7°C° 0 mm 4 m/s 705 mmHg 84%
14:00 +8°C° 0 mm 3 m/s 705 mmHg 85%
15:00 +8°C° 0 mm 3 m/s 705 mmHg 86%
16:00 +7°C° 0.2 mm 2 m/s 705 mmHg 88%
17:00 +7°C° 0.2 mm 2 m/s 705 mmHg 89%
18:00 +8°C° 0.2 mm 1 m/s 704 mmHg 91%
19:00 +8°C° 1.2 mm 1 m/s 704 mmHg 93%
20:00 +8°C° 1.2 mm 1 m/s 704 mmHg 94%
21:00 +8°C° 1.2 mm 1 m/s 704 mmHg 96%
22:00 +8°C° 1.5 mm 1 m/s 704 mmHg 96%
23:00 +8°C° 1.5 mm 1 m/s 704 mmHg 97%

11 Décembre, Vendredi

Heure Température Précipitation Vent Pression Humidité
00:00 +8°C° 1.5 mm 1 m/s 704 mmHg 97%
01:00 +9°C° 1.6 mm 1 m/s 704 mmHg 97%
02:00 +9°C° 1.6 mm 1 m/s 704 mmHg 97%
03:00 +8°C° 1.6 mm 2 m/s 704 mmHg 97%
04:00 +9°C° 1.4 mm 2 m/s 704 mmHg 96%
05:00 +9°C° 1.4 mm 2 m/s 704 mmHg 96%
06:00 +9°C° 1.4 mm 2 m/s 704 mmHg 95%
07:00 +10°C° 0.5 mm 2 m/s 705 mmHg 95%
08:00 +10°C° 0.5 mm 2 m/s 705 mmHg 94%
09:00 +10°C° 0.5 mm 2 m/s 706 mmHg 94%
10:00 +10°C° 0.5 mm 2 m/s 706 mmHg 94%
11:00 +12°C° 0.5 mm 2 m/s 706 mmHg 94%
12:00 +12°C° 0.5 mm 2 m/s 706 mmHg 94%
13:00 +12°C° 0.2 mm 2 m/s 706 mmHg 93%
14:00 +13°C° 0.2 mm 1 m/s 706 mmHg 91%
15:00 +13°C° 0.2 mm 1 m/s 705 mmHg 90%
16:00 +13°C° 0.1 mm 1 m/s 705 mmHg 90%
17:00 +12°C° 0.1 mm 1 m/s 705 mmHg 90%
18:00 +12°C° 0.1 mm 1 m/s 705 mmHg 89%
19:00 +12°C° 0.1 mm 1 m/s 706 mmHg 89%
20:00 +12°C° 0.1 mm 2 m/s 706 mmHg 88%
21:00 +12°C° 0.1 mm 2 m/s 706 mmHg 87%
22:00 +10°C° 0 mm 2 m/s 706 mmHg 87%
23:00 +10°C° 0 mm 2 m/s 706 mmHg 86%
Voir plus

Nous avons besoin de votre consentement

Meteoprog et ses fournisseurs de services peuvent stocker et accéder à des données personnelles telles que des cookies, des identifiants d'appareils ou d'autres technologies similaires sur votre appareil et traiter ces données pour personnaliser le contenu et les publicités, ainsi que pour fournir des fonctionnalités de médias sociaux et analyser le trafic.

  • Stocker et/ou accéder à des informations sur votre appareil

    Des cookies, des identifiants d'appareils ou d'autres informations peuvent être stockés ou accessibles sur votre appareil aux fins indiquées ci-dessus.

  • Annonces et contenus personnalisés, mesure des annonces et des contenus, connaissance de l'audience et développement de produits

    Les annonces et le contenu peuvent être personnalisés en fonction d'un profil. D'autres données peuvent être ajoutées pour mieux personnaliser les annonces et le contenu. Les performances des publicités et du contenu peuvent être mesurées. Il est possible d'obtenir des informations sur le public qui a vu les publicités et le contenu. Ces données peuvent être utilisées pour développer ou améliorer l'expérience de l'utilisateur, les systèmes et les logiciels.

En cliquant sur "J'accepte", vous autorisez l'utilisation de cookies, des identifiants d'appareils, des balises web ou d'autres technologies similaires. Vos paramètres peuvent être modifiés dans le navigateur de votre appareil.

Dans certains cas, des intérêts légitimes peuvent être invoqués plutôt qu'un consentement. Vous pouvez en savoir plus à ce sujet dans notre Politique de confidentialité et de cookies.